Weather History for Fort Myers, FL

Change the Weather History Date:

Wednesday, December 5, 2012

  Actual Average Record
Temperature  
Mean Temperature 69 °F 68 °F  
Max Temperature 78 °F 78 °F 86 °F (1941)
Min Temperature 59 °F 58 °F 39 °F (1957)
Degree Days  
Heating Degree Days 0 1  
Month to date heating degree days 0 5  
Since 1 July heating degree days 15 23  
Cooling Degree Days 4 5  
Month to date cooling degree days 29 25  
Year to date cooling degree days 4242 3888  
Growing Degree Days 18 (Base 50)    
Moisture  
Dew Point 61 °F    
Average Humidity 80    
Maximum Humidity 93    
Minimum Humidity 56    
Precipitation  
Precipitation 0.00 in 0.05 in 0.82 in (2009)
Month to date precipitation 0.00 0.23  
Year to date precipitation 47.43 54.45  
Sea Level Pressure  
Sea Level Pressure 30.10 in    
Wind  
Wind Speed 3 mph (NE)    
Max Wind Speed 12 mph    
Max Gust Speed 17 mph    
Visibility 10 miles    
Events      
T = Trace of Precipitation, MM = Missing Value Source: NWS Daily Summary

Daily Weather History Graph

Daily Weather History Graph

Search for Another Location

Airport:

Trip Planner

Search our weather history database for the weather conditions in past years. The results will help you decide how hot, cold, wet, or windy it might be!

Date:

Astronomy

Dec. 05, 2012 Rise Set
Actual Time 7:01 AM EST 5:34 PM EST
Civil Twilight 6:36 AM EST 5:59 PM EST
Nautical Twilight 6:07 AM EST 6:28 PM EST
Astronomical Twilight 5:39 AM EST 6:56 PM EST
Moon 11:54 PM EST (12/5) 11:49 AM EST (12/5)
Length of Visible Light 11h 23m
Length of Day
10h 32m
Waning Gibbous, 60% of the Moon is Illuminated
Dec 5
Waning Gibbous
Dec 6
Last Quarter
Dec 13
New
Dec 20
First Quarter
Dec 28
Full

Hourly Weather History & Observations

Time (EST) Temp. Dew Point Humidity Pressure Visibility Wind Dir Wind Speed Gust Speed Precip Events Conditions
12:53 AM 60.1 °F 55.0 °F 83% 30.17 in 10.0 mi Calm Calm - N/A   Clear
1:53 AM 60.1 °F 55.0 °F 83% 30.16 in 10.0 mi ENE 3.5 mph - N/A   Mostly Cloudy
2:53 AM 61.0 °F 55.9 °F 83% 30.15 in 10.0 mi NE 3.5 mph - N/A   Mostly Cloudy
3:53 AM 59.0 °F 55.9 °F 90% 30.13 in 10.0 mi Calm Calm - N/A   Clear
4:53 AM 61.0 °F 57.0 °F 87% 30.12 in 10.0 mi ENE 4.6 mph - N/A   Clear
5:53 AM 60.1 °F 57.0 °F 90% 30.12 in 10.0 mi NE 5.8 mph - N/A   Partly Cloudy
6:53 AM 60.1 °F 57.0 °F 90% 30.14 in 10.0 mi NE 6.9 mph - N/A   Clear
7:53 AM 63.0 °F 59.0 °F 87% 30.15 in 10.0 mi NE 3.5 mph - N/A   Partly Cloudy
9:53 AM 72.0 °F 62.1 °F 71% 30.16 in 10.0 mi NNE 5.8 mph - N/A   Mostly Cloudy
10:53 AM 75.9 °F 62.1 °F 62% 30.15 in 10.0 mi Variable 5.8 mph - N/A   Overcast
11:53 AM 75.9 °F 62.1 °F 62% 30.12 in 10.0 mi East 6.9 mph - N/A   Mostly Cloudy
12:53 PM 77.0 °F 61.0 °F 58% 30.09 in 10.0 mi Variable 4.6 mph - N/A   Overcast
1:53 PM 73.0 °F 64.0 °F 73% 30.07 in 8.0 mi SSE 9.2 mph - N/A   Overcast
2:53 PM 73.0 °F 64.0 °F 73% 30.05 in 10.0 mi Calm Calm - N/A   Overcast
3:53 PM 71.1 °F 63.0 °F 75% 30.05 in 10.0 mi NW 3.5 mph - N/A   Overcast
4:53 PM 72.0 °F 63.0 °F 73% 30.04 in 10.0 mi Calm Calm - N/A   Overcast
5:53 PM 71.1 °F 64.0 °F 78% 30.04 in 10.0 mi Calm Calm - N/A   Overcast
6:53 PM 71.1 °F 64.0 °F 78% 30.04 in 10.0 mi Calm Calm - N/A   Overcast
7:53 PM 68.0 °F 64.0 °F 87% 30.05 in 10.0 mi Calm Calm - N/A   Clear
8:53 PM 66.0 °F 64.0 °F 93% 30.05 in 10.0 mi Calm Calm - N/A   Clear
9:53 PM 66.0 °F 63.0 °F 90% 30.05 in 10.0 mi Calm Calm - N/A   Clear
10:53 PM 64.9 °F 63.0 °F 93% 30.05 in 10.0 mi Calm Calm - N/A   Overcast
11:53 PM 66.9 °F 63.0 °F 87% 30.05 in 10.0 mi North 3.5 mph - N/A   Overcast